Regional Weather Roundup
Issued by NWS

Home | Current Version | Previous Version | Text Only | Print | Product List | Glossary On
Versions: 1 2 3 4 5 6 7 8 9 10 11 12 13 14 15 16 17 18 19 20 21 22 23 24 25 26 27 28 29 30 31 32 33 34 35 36 37 38 39 40 41 42 43 44 45 46 47 48 49 50
000
ASUS44 KLIX 300812
RWRLA
LOUISIANA WEATHER ROUNDUP
NATIONAL WEATHER SERVICE NEW ORLEANS LA
300 AM CDT THU JUL 30 2015

NOTE: "FAIR" INDICATES FEW OR NO CLOUDS BELOW 12,000 FEET WITH NO
      SIGNIFICANT WEATHER AND/OR OBSTRUCTIONS TO VISIBILITY.
      SKY/WX - SKY CONDITION AND SIGNIFICANT WEATHER.
      TMP - AIR TEMPERATURE.    DP   - DEWPOINT TEMPERATURE.
      RH  - RELATIVE HUMIDITY.  PRES - PRESSURE.
      HX  - HEAT INDEX.         WCI  - WIND CHILL INDEX.

*  THESE STATIONS ARE NOT NWS OR FAA STATIONS AND ARE NOT UNDER
   NWS QUALITY CONTROL.

LAZ040-048-061>063-065-066-069-300900-
SOUTHEAST LOUISIANA

CITY           SKY/WX    TMP DP  RH WIND       PRES   REMARKS
N.O. AUDUBON     N/A     79  78  98 MISG        N/A
N.O. INTL ARPT PTCLDY    78  74  87 W6        29.99S
N.O. LAKEFRONT PTCLDY    80  76  87 N8        29.99F
N.O. DOWNTOWN* FAIR      81  77  89 CALM      30.00S
RESERVE*         N/A     78  76  91 CALM      30.00S
SLIDELL        PTCLDY    75  75 100 CALM      29.98F
BATON ROUGE    MOCLDY    78  75  90 CALM      30.00F
BOOTHVILLE     MOCLDY    81  77  88 CALM      29.99F
BELLE CHASSE   PTCLDY    77  76  96 S6        29.99S
BOGALUSA*        N/A     75  72  89 CALM      30.01F
GALLIANO*      NOT AVBL
NEW ROADS*     FAIR     N/A N/A N/A CALM      30.00F
GONZALES*      FAIR      78  78 100 CALM      29.99F
HAMMOND*       CLEAR     75  72  88 CALM      30.01F
HOUMA*         MOCLDY    78  75  90 NW6       29.99F
PORT FOURCHON* NOT AVBL

$$

LAZ041-044-053-054-300900-
SOUTHWEST LOUISIANA

CITY           SKY/WX    TMP DP  RH WIND       PRES   REMARKS
LAKE CHARLES   MOCLDY    82  76  81 W3        29.99F
LAFAYETTE      CLOUDY    81  73  76 CALM      30.00S
PATTERSON      MOCLDY    77  75  94 SE3       30.02S
SALT POINT       N/A     79  76  90 CALM      29.99S
NEW IBERIA     CLOUDY    80  76  87 CALM      30.00F
CHENAULT AIRPK MOCLDY    84  75  74 W8        30.00F

$$

LAZ027-028-300900-
CENTRAL LOUISIANA

CITY           SKY/WX    TMP DP  RH WIND       PRES   REMARKS
FORT POLK      PTCLDY    79  75  87 NW2       30.00F
ALEXANDRIA INT   N/A    N/A N/A N/A MISG      29.99F
ALEXANDRIA     PTCLDY    76  73  91 CALM      30.01F

$$

LAZ001-002-300900-
NORTHWEST LOUISIANA

CITY           SKY/WX    TMP DP  RH WIND       PRES   REMARKS
SHREVEPORT     PTCLDY    82  72  71 CALM      30.01F
BARKSDALE AFB  PTCLDY    82  74  79 CALM      30.01F
DTN SHREVEPORT PTCLDY    83  75  77 CALM      30.01F

$$

LAZ014-016-300900-
NORTHEAST LOUISIANA

CITY           SKY/WX    TMP DP  RH WIND       PRES   REMARKS
MONROE         CLEAR     79  76  90 CALM      30.01F
TALLULAH       CLEAR     78  74  87 S3        30.01S

$$




USA.gov is the U.S. government's official web portal to all federal, state and local government web resources and services.